Location: Hoyos del Collado
(40.3594°N, 5.2003°W)
Time: 12:37:42
(UTC+00:00)

ISS - Pass Details

Date: 24 June 2024
Orbit: 410 x 424 km, 51.6° (Epoch: 13 July)

Event Time Altitude Azimuth Distance (km) Brightness Sun altitude
Exits shadow 02:32:14 18° 125° (SE) 1,094 -1.7 -19.5°
Drops below altitude 10° 02:34:20 10° 86° (E) 1,486 -0.5 -19.3°
Sets 02:36:52 0° 67° (ENE) 2,357 1.0 -19.1°
